Location: Fernhill
(41.0167°S, 175.6333°E)
Time: 23:49:24
(UTC+00:00)

Lacrosse 5 rocket - Pass Details

Date: 08 November 2025
Orbit: 406 x 494 km, 57.0° (Epoch: 04 December)

Event Time Altitude Azimuth Distance (km) Brightness Sun altitude
Rises 07:34:52 0° 215° (SW) 2,590 6.1 -5.7°
Reaches altitude 10° 07:38:26 10° 181° (S) 1,724 4.3 -6.3°
Maximum altitude 07:39:49 12° 160° (SSE) 1,632 3.9 -6.5°
Drops below altitude 10° 07:41:12 10° 139° (SE) 1,733 3.7 -6.7°
Enters shadow 07:44:36 - 106° (ESE) 2,556 4.3 -7.3°
